| time (UTC) | temp C | wind direction | speed KPH | gust KPH | rain 1hr cm | rain 24hr cm | rain mn cm | humidity % | barometer mb |
| 20260506221530 | 10 | 144 | 0.0 | 3.2 | 0.03 | 3.05 | 0.00 | 95 | 1011.5 |
| 20260506220032 | 10 | 314 | 0.0 | 1.6 | 0.03 | 3.05 | 0.00 | 95 | 1011.2 |
| 20260506214516 | 10 | 314 | 0.0 | 3.2 | 0.05 | 3.17 | 3.05 | 95 | 1011.1 |
| 20260506213008 | 10 | 148 | 0.0 | 0.0 | 0.05 | 3.17 | 3.05 | 94 | 1011.0 |
| 20260506211557 | 10 | 158 | 0.0 | 0.0 | 0.05 | 3.15 | 3.02 | 94 | 1011.1 |
| 20260506210048 | 10 | 266 | 0.0 | 4.8 | 0.05 | 3.15 | 3.00 | 94 | 1011.1 |
| 20260506204549 | 10 | 327 | 1.6 | 8.0 | 0.05 | 3.20 | 2.97 | 94 | 1010.8 |
| 20260506203030 | 10 | 152 | 0.0 | 1.6 | 0.13 | 3.20 | 2.97 | 94 | 1010.5 |
| 20260506201518 | 10 | 152 | 0.0 | 0.0 | 0.15 | 3.20 | 2.97 | 94 | 1010.3 |
| 20260506200009 | 11 | 152 | 0.0 | 3.2 | 0.23 | 3.33 | 2.97 | 94 | 1010.3 |
| 20260506194627 | 11 | 152 | 0.0 | 1.6 | 0.20 | 3.28 | 2.90 | 94 | 1010.2 |
| 20260506193053 | 11 | 135 | 0.0 | 8.0 | 0.15 | 3.23 | 2.84 | 93 | 1009.9 |
| 20260506191545 | 11 | 158 | 0.0 | 3.2 | 0.13 | 3.20 | 2.84 | 93 | 1009.6 |
| 20260506190035 | 11 | 158 | 0.0 | 4.8 | 0.03 | 3.10 | 2.74 | 93 | 1009.3 |
| 20260506184527 | 11 | 307 | 0.0 | 0.0 | 0.00 | 3.25 | 2.72 | 92 | 1008.8 |
| 20260506183021 | 11 | 307 | 0.0 | 0.0 | 0.00 | 3.25 | 2.72 | 92 | 1008.3 |
| 20260506181519 | 11 | 307 | 0.0 | 0.0 | 0.00 | 3.25 | 2.72 | 92 | 1008.4 |
| 20260506180008 | 11 | 307 | 0.0 | 1.6 | 0.00 | 3.45 | 2.72 | 91 | 1008.3 |
| 20260506174604 | 11 | 212 | 0.0 | 4.8 | 0.00 | 3.45 | 2.72 | 91 | 1008.2 |
| 20260506173108 | 12 | 319 | 0.0 | 4.8 | 0.00 | 3.45 | 2.72 | 91 | 1008.1 |
| 20260506171546 | 12 | 299 | 0.0 | 3.2 | 0.00 | 3.45 | 2.72 | 91 | 1008.2 |
| 20260506170042 | 12 | 330 | 0.0 | 6.4 | 0.00 | 3.45 | 2.72 | 91 | 1008.1 |
| 20260506164526 | 12 | 281 | 1.6 | 14.5 | 0.00 | 3.53 | 2.72 | 90 | 1008.1 |
| 20260506163018 | 12 | 292 | 1.6 | 4.8 | 0.00 | 3.53 | 2.72 | 90 | 1007.9 |
| 20260506161509 | 12 | 314 | 6.4 | 12.9 | 0.00 | 3.53 | 2.72 | 89 | 1007.8 |
| 20260506154555 | 12 | 329 | 3.2 | 6.4 | 0.00 | 3.53 | 2.72 | 92 | 1008.3 |
| 20260506153043 | 12 | 344 | 1.6 | 6.4 | 0.00 | 3.53 | 2.72 | 92 | 1008.5 |
| 20260506151549 | 12 | 322 | 0.0 | 6.4 | 0.00 | 3.53 | 2.72 | 92 | 1008.5 |
| 20260506150032 | 12 | 308 | 0.0 | 8.0 | 0.00 | 3.53 | 2.72 | 91 | 1008.6 |
| 20260506144520 | 12 | 360 | 1.6 | 4.8 | 0.03 | 3.53 | 2.72 | 92 | 1008.7 |
| 20260506143033 | 11 | 344 | 3.2 | 6.4 | 0.05 | 3.53 | 2.72 | 94 | 1008.8 |
| 20260506141502 | 11 | 139 | 1.6 | 4.8 | 0.15 | 3.53 | 2.72 | 95 | 1009.1 |
| 20260506140111 | 11 | 193 | 0.0 | 1.6 | 0.33 | 3.53 | 2.72 | 94 | 1008.9 |
| 20260506134550 | 10 | 151 | 8.0 | 16.1 | 0.43 | 3.53 | 2.69 | 94 | 1009.0 |
| 20260506133045 | 10 | 137 | 0.0 | 4.8 | 0.64 | 3.51 | 2.69 | 94 | 1008.9 |
| 20260506131533 | 10 | 160 | 1.6 | 17.7 | 0.71 | 3.40 | 2.59 | 92 | 1009.7 |
| 20260506130018 | 11 | 133 | 1.6 | 4.8 | 0.56 | 3.23 | 2.39 | 94 | 1009.2 |
| 20260506124506 | 11 | 315 | 3.2 | 6.4 | 0.41 | 3.05 | 2.24 | 93 | 1008.3 |
| 20260506123103 | 11 | 258 | 0.0 | 8.0 | 0.18 | 2.84 | 2.03 | 93 | 1007.7 |
| 20260506121553 | 12 | 314 | 1.6 | 11.3 | 0.03 | 2.69 | 1.85 | 94 | 1007.0 |
| 20260506120046 | 12 | 288 | 3.2 | 8.0 | 0.03 | 2.67 | 1.83 | 94 | 1006.5 |
| 20260506114542 | 12 | 293 | 0.0 | 4.8 | 0.03 | 2.69 | 1.83 | 94 | 1006.5 |
| 20260506113030 | 12 | 286 | 0.0 | 3.2 | 0.03 | 2.69 | 1.83 | 94 | 1006.6 |
| 20260506111518 | 11 | 286 | 0.0 | 1.6 | 0.03 | 2.69 | 1.83 | 94 | 1006.8 |
| 20260506110010 | 12 | 277 | 0.0 | 3.2 | 0.00 | 2.67 | 1.83 | 94 | 1006.9 |
| 20260506104502 | 12 | 297 | 0.0 | 3.2 | 0.00 | 2.67 | 1.83 | 94 | 1007.1 |
| 20260506103058 | 12 | 307 | 0.0 | 4.8 | 0.05 | 2.67 | 1.83 | 95 | 1007.1 |
| 20260506101556 | 12 | 316 | 0.0 | 0.0 | 0.08 | 2.67 | 1.83 | 94 | 1007.0 |
| 20260506100043 | 12 | 316 | 0.0 | 4.8 | 0.08 | 2.67 | 1.83 | 94 | 1006.7 |
| 20260506094545 | 12 | 316 | 0.0 | 0.0 | 0.08 | 2.67 | 1.83 | 95 | 1006.8 |
| 20260506093028 | 12 | 316 | 0.0 | 0.0 | 0.05 | 2.62 | 1.78 | 95 | 1006.8 |
| 20260506091522 | 11 | 316 | 0.0 | 0.0 | 0.00 | 2.59 | 1.75 | 95 | 1006.6 |
| 20260506090014 | 12 | 320 | 1.6 | 6.4 | 0.03 | 2.82 | 1.75 | 95 | 1006.5 |
| 20260506084510 | 11 | 323 | 0.0 | 0.0 | 0.05 | 2.82 | 1.75 | 95 | 1006.9 |
| 20260506083101 | 11 | 323 | 0.0 | 0.0 | 0.08 | 2.82 | 1.75 | 95 | 1007.1 |
| 20260506081555 | 11 | 323 | 0.0 | 4.8 | 0.10 | 2.82 | 1.75 | 95 | 1007.0 |
| 20260506073027 | 11 | 300 | 0.0 | 4.8 | 0.08 | 2.97 | 1.65 | 95 | 1007.3 |
| 20260506071520 | 11 | 320 | 0.0 | 0.0 | 0.13 | 2.92 | 1.65 | 95 | 1007.5 |
| 20260506061558 | 11 | 309 | 0.0 | 0.0 | 0.15 | 2.84 | 1.52 | 95 | 1007.9 |
| 20260506044511 | 11 | 154 | 0.0 | 0.0 | 0.48 | 2.59 | 1.24 | 95 | 1008.3 |
| 20260506043001 | 11 | 154 | 0.0 | 0.0 | 0.53 | 2.54 | 1.17 | 95 | 1008.4 |
| 20260506041607 | 11 | 154 | 0.0 | 0.0 | 0.58 | 2.46 | 1.09 | 95 | 1008.6 |
| 20260506040053 | 11 | 154 | 0.0 | 0.0 | 0.58 | 2.31 | 0.97 | 95 | 1008.6 |
| 20260506034546 | 11 | 154 | 0.0 | 0.0 | 0.51 | 2.11 | 0.76 | 95 | 1008.7 |
| 20260506033038 | 11 | 154 | 0.0 | 0.0 | 0.43 | 2.01 | 0.64 | 95 | 1008.8 |
| 20260506031531 | 11 | 154 | 0.0 | 0.0 | 0.41 | 1.88 | 0.51 | 95 | 1008.9 |
| 20260506030025 | 11 | 154 | 0.0 | 0.0 | 0.33 | 1.75 | 0.38 | 95 | 1009.1 |
| 20260506024515 | 11 | 154 | 0.0 | 0.0 | 0.20 | 1.63 | 0.25 | 95 | 1009.4 |
| 20260506023008 | 11 | 154 | 0.0 | 0.0 | 0.18 | 1.57 | 0.23 | 95 | 1009.4 |
| 20260506021502 | 11 | 154 | 0.0 | 0.0 | 0.05 | 1.42 | 0.10 | 95 | 1009.6 |
| 20260506020100 | 11 | 154 | 0.0 | 0.0 | 0.03 | 1.42 | 0.05 | 95 | 1009.6 |
| 20260506014556 | 11 | 154 | 0.0 | 0.0 | 0.03 | 1.42 | 0.05 | 95 | 1009.7 |
| 20260506013047 | 11 | 154 | 0.0 | 0.0 | 0.00 | 1.40 | 0.05 | 95 | 1009.7 |
| 20260506011542 | 11 | 154 | 0.0 | 0.0 | 0.00 | 1.40 | 0.05 | 95 | 1009.9 |
| 20260506010034 | 11 | 154 | 0.0 | 3.2 | 0.00 | 1.40 | 0.05 | 95 | 1010.2 |
| 20260506004538 | 11 | 154 | 0.0 | 3.2 | 0.00 | 1.40 | 0.05 | 95 | 1010.1 |
| 20260506003025 | 11 | 154 | 0.0 | 0.0 | 0.00 | 1.40 | 0.05 | 95 | 1010.2 |
| 20260506001517 | 11 | 154 | 0.0 | 0.0 | 0.05 | 1.40 | 0.05 | 95 | 1010.5 |
| 20260506000018 | 11 | 154 | 1.6 | 3.2 | 0.05 | 1.40 | 0.05 | 95 | 1010.6 |
| 20260505234513 | 11 | 154 | 0.0 | 0.0 | 0.05 | 1.40 | 0.05 | 95 | 1010.5 |
| 20260505233105 | 11 | 154 | 0.0 | 3.2 | 0.05 | 1.40 | 0.05 | 95 | 1010.9 |
| 20260505231558 | 11 | 154 | 0.0 | 0.0 | 0.00 | 1.37 | 0.00 | 95 | 1011.0 |
| 20260505230104 | 11 | 154 | 0.0 | 0.0 | 0.00 | 1.37 | 0.00 | 95 | 1010.9 |
| 20260505224536 | 11 | 154 | 0.0 | 0.0 | 0.03 | 1.37 | 0.00 | 95 | 1010.9 |
| 20260505223036 | 11 | 154 | 0.0 | 0.0 | 0.05 | 1.37 | 0.00 | 95 | 1011.0 |